Location: Nitra
(48.3167°N, 18.0833°E)
Time: 18:23:41
(UTC+01:00)

STARLINK-1707 - Pass Details

Date: 24 September 2020
Orbit: 378 x 381 km, 53.0° (Epoch: 30 October)

Event Time Altitude Azimuth Distance (km) Brightness Sun altitude
Exits shadow 03:33:52 16° 55° (NE) 1,181 6.1 -29.3°
Drops below altitude 10° 03:34:40 10° 61° (ENE) 1,480 6.7 -29.2°
Enters shadow 04:31:20 -68° 266° (W) 12,208 10.4 -21.2°
Maximum altitude 05:08:07 38° 9° (N) 645 4.2 -15.5°
